Regional Weather Roundup
Issued by NWS Green Bay, WI

Home | Current Version | Previous Version | Graphics & Text | Print | Product List | Glossary Off
Versions: 1 2 3 4 5 6 7 8 9 10 11 12 13 14 15 16 17 18 19 20 21 22 23 24 25 26 27 28 29 30 31 32 33 34 35 36 37 38 39 40 41 42 43 44 45 46 47 48 49 50

000
ASUS43 KGRB 021011
RWRGRB

NORTH-CENTRAL AND NORTHEAST WISCONSIN REGIONAL WEATHER ROUNDUP
NATIONAL WEATHER SERVICE GREEN BAY WI
500 AM CDT WED SEP 02 2015

WIZ005-009-010>012-018-019-021100-
NORTH CENTRAL WISCONSIN

CITY           SKY/WX    TMP DP  RH WIND       PRES   REMARKS
IRONWOOD       MOCLDY    64  64 100 E3        29.93S
MANITOWISH WTR MOCLDY    63  63 100 CALM      29.98S
ARBOR VITAE    PTCLDY    65  64  95 CALM      29.98S FOG
EAGLE RIVER    MOCLDY    64  64 100 CALM      29.99R FOG
LAND O LAKES   FOG       62  62 100 CALM      30.00S VSB 1/2
RHINELANDER    FOG       69  67  93 CALM      29.99S VSB 3/4
PHILLIPS       CLOUDY    69  69 100 CALM      29.97R FOG
ANTIGO         FOG       64  64 100 CALM      29.99S VSB<1/4
TOMAHAWK       FOG       66  65  97 CALM      29.99R VSB 3/4
MERRILL        FOG       64  64 100 CALM      29.98S VSB 1/4
$$

WIZ013-073-021100-
NORTHEAST WISCONSIN

CITY           SKY/WX    TMP DP  RH WIND       PRES   REMARKS
IRON MOUNTAIN  PTCLDY    67  65  93 NW3       29.96S FOG
MARINETTE      PTCLDY    70  66  88 CALM      29.93S
OCONTO         PTCLDY    67  67 100 CALM      29.94S
$$

WIZ017-030-035>037-045-021100-
CENTRAL WISCONSIN

CITY           SKY/WX    TMP DP  RH WIND       PRES   REMARKS
MEDFORD        MOCLDY    69  69 100 S5        29.98S FOG
WAUSAU         MOCLDY    72  70  93 SE3       29.96S FOG
MOSINEE          N/A     68  68 100 S5        29.99S FOG
MARSHFIELD     FOG       69  65  86 SW3       29.98S VSB 1/4
WISC RAPIDS    PTCLDY    70  68  93 S3        29.99S FOG
STEVENS POINT  PTCLDY    68  68  99 CALM      29.99R FOG
WAUPACA        FOG       71  70  96 CALM      29.98R VSB 3/4
SHAWANO        PTCLDY    71  70  94 CALM      29.96S FOG
CLINTONVILLE   FOG       66  64  94 CALM      29.96R VSB 1
WAUTOMA        FOG       68  68 100 CALM      29.99S VSB<1/4
$$

WIZ038-039-048-051-021100-
FOX VALLEY

CITY           SKY/WX    TMP DP  RH WIND       PRES   REMARKS
NWS GREEN BAY  PTCLDY    71  69  93 SW3       29.96S FOG
APPLETON       PTCLDY    70  70 100 SW6       29.96S FOG
OSHKOSH        CLEAR     73  70  90 SW8       29.97S FOG
FOND DU LAC    CLEAR     73  71  93 SW7       29.99R
$$

WIZ022-050-052-021100-
EAST CENTRAL WISCONSIN

CITY           SKY/WX    TMP DP  RH WIND       PRES   REMARKS
EPHRAIM        FAIR      71  70  96 W5        29.93S FOG
STURGEON BAY   PTCLDY    73  70  88 W5        29.96F
MANITOWOC      PTCLDY    65  62  90 MISG      29.97R FOG
SHEBOYGAN      PTCLDY    72  70  93 SW6       29.98R
$$

LMZ563-521-522-541>543-021100-
LAKESHORE

STATION/POSITION TIME  TEMP    WIND        PRES    VSBY  WAVE
                       AIR SEA DIR/SP/G                  HT/PER
                 (UTC) (F)     (DEG/KT/KT) (MB)    (MI)  (FT/S)
SHEBOYGAN LKSHOR 1000   74     240/  8/  9 1014.8R
KEWAUNEE LKSHORE 0900   55     210/  2/  2 1013.0F
ALGOMA MARINA    0929             CALM       N/A
NORTHPORT PIER   0900   64      CALM  /  3 1013.5
N MID LAKE BUOY  0950   66 65  200/  6/  6 1013.6S         1/ 4
S GREEN BAY BUOY 1000   69 67  220/  6/  8 1015.4
SISTER BAY LKSHO 0919   73        CALM       N/A
CHAMBERS ISLAND  0900   71      CALM  /  6 1013.5F
MENOMINEE LKSHOR 0900   71     210/  2/  2 1012.6F
$$



USA.gov is the U.S. government's official web portal to all federal, state and local government web resources and services.